Date String (YYYY-MM-DD hh:mm:ss) UTC,Instrument flags,Ambient pressure (hPa),Sample flow (lpm),Bypass flow (lpm),Sample temperature (°C),Ambient temperature (°C),ASC tube jacket temperature (°C),LED temperature (°C),Box temperature (°C),Sample RH (%),Span deviation,Mass concentration (μg/m³),Mass concentration (μg/m³),Mass concentration (μg/m³)
DateTimeUTC,F1_M11,P_M11,Q1_M11,Q2_M11,T1_M11,T2_M11,T3_M11,T4_M11,T5_M11,U1_M11,ZSPAN_M11,X2_M11,X0_M11,X1_M11
2023-01-23 22:00:00,,0824.1,5.01,0.00,22.4,21.0,00.0,31.2,24.2,14.7,-000.6,0014.45,0017.66,0014.05
2023-01-23 22:01:00,,0824.1,4.99,0.00,22.4,21.0,00.0,31.2,24.1,14.6,-000.9,0014.52,0017.75,0014.10
2023-01-23 22:02:00,,0824.1,4.99,0.00,22.4,20.9,00.0,31.2,24.1,14.5,-001.2,0014.60,0017.74,0014.21
2023-01-23 22:03:00,,0824.1,5.00,0.00,22.4,20.9,00.0,31.2,24.1,14.6,-001.2,0014.69,0017.66,0014.30
2023-01-23 22:04:00,,0824.1,5.01,0.00,22.4,20.9,00.0,31.2,24.1,14.6,-001.4,0014.76,0017.43,0014.39
2023-01-23 22:05:00,,0824.1,5.00,0.00,22.4,20.9,00.0,31.2,24.1,14.6,-001.4,0014.88,0017.67,0014.49
2023-01-23 22:06:00,,0824.1,5.00,0.00,22.4,20.9,00.0,31.2,24.1,14.6,-001.1,0014.98,0017.80,0014.59
2023-01-23 22:07:00,,0824.1,5.00,0.00,22.4,20.9,00.0,31.2,24.1,14.6,-000.8,0015.08,0017.53,0014.71
2023-01-23 22:08:00,,0824.1,4.99,0.00,22.4,20.8,00.0,31.2,24.1,14.5,-000.8,0015.29,0017.69,0014.89
2023-01-23 22:09:00,,0824.1,5.01,0.00,22.3,20.8,00.0,31.2,24.0,14.5,-000.5,0015.46,0017.86,0015.04
2023-01-23 22:10:00,,0824.1,5.01,0.00,22.3,20.8,00.0,31.2,24.0,14.5,-000.4,0015.66,0018.15,0015.22
2023-01-23 22:11:00,,0824.1,5.00,0.00,22.3,20.7,00.0,31.1,24.0,14.5,-000.5,0015.86,0018.76,0015.42
2023-01-23 22:12:00,,0824.1,5.00,0.00,22.3,20.7,00.0,31.1,24.0,14.5,-000.2,0016.04,0018.97,0015.61
2023-01-23 22:13:00,,0824.1,4.99,0.00,22.3,20.7,00.0,31.1,24.0,14.6,0000.0,0016.19,0019.12,0015.74
2023-01-23 22:14:00,,0824.1,5.01,0.00,22.3,20.7,00.0,31.1,24.0,14.6,0000.2,0016.35,0019.72,0015.89
2023-01-23 22:15:00,,0824.1,4.98,0.00,22.3,20.7,00.0,31.1,24.0,14.6,-000.1,0016.52,0019.98,0016.06
2023-01-23 22:16:00,,0824.1,5.01,0.00,22.3,20.7,00.0,31.1,24.0,14.5,0000.0,0016.66,0020.04,0016.19
2023-01-23 22:17:00,,0824.1,5.00,0.00,22.3,20.7,00.0,31.1,24.0,14.6,-000.0,0016.78,0020.08,0016.29
2023-01-23 22:18:00,,0824.1,5.00,0.00,22.2,20.7,00.0,31.1,24.0,14.6,-000.6,0016.88,0020.20,0016.39
2023-01-23 22:19:00,,0824.1,5.01,0.00,22.2,20.7,00.0,31.1,24.0,14.6,-000.8,0016.91,0020.21,0016.43
2023-01-23 22:20:00,,0824.1,4.99,0.00,22.2,20.7,00.0,31.1,23.9,14.7,-000.8,0016.91,0020.33,0016.45
2023-01-23 22:21:00,,0824.1,5.01,0.00,22.2,20.7,00.0,31.1,24.0,14.7,-000.6,0016.93,0020.18,0016.49
2023-01-23 22:22:00,,0824.1,5.01,0.00,22.2,20.7,00.0,31.0,23.9,14.6,-000.5,0016.99,0019.77,0016.57
2023-01-23 22:23:00,,0824.1,5.00,0.00,22.2,20.7,00.0,31.0,23.9,14.6,-000.6,0017.06,0019.86,0016.62
2023-01-23 22:24:00,,0824.1,4.99,0.00,22.2,20.7,00.0,31.0,24.0,14.7,-000.7,0017.11,0019.94,0016.67
2023-01-23 22:25:00,,0824.1,5.00,0.00,22.2,20.7,00.0,31.0,24.0,14.7,-001.0,0017.14,0019.65,0016.71
2023-01-23 22:26:00,,0824.1,5.01,0.00,22.2,20.7,00.0,31.0,24.0,14.7,-001.0,0017.19,0019.56,0016.74
2023-01-23 22:27:00,,0824.1,4.99,0.00,22.2,20.6,00.0,31.0,23.9,14.7,-000.8,0017.21,0019.56,0016.77
2023-01-23 22:28:00,,0824.1,5.00,0.00,22.2,20.6,00.0,31.0,23.9,14.7,-001.1,0017.21,0019.74,0016.78
2023-01-23 22:29:00,,0824.1,5.00,0.00,22.2,20.6,00.0,31.0,23.9,14.7,-000.8,0017.26,0020.11,0016.82
2023-01-23 22:30:00,,0824.1,5.00,0.00,22.1,20.5,00.0,31.0,23.9,14.7,-000.4,0017.28,0020.45,0016.82
2023-01-23 22:31:00,,0824.1,4.99,0.00,22.1,20.5,00.0,31.0,23.9,14.7,-000.6,0017.27,0020.22,0016.83
2023-01-23 22:32:00,,0824.1,5.00,0.00,22.1,20.5,00.0,31.0,23.9,14.7,-000.6,0017.29,0020.26,0016.84
2023-01-23 22:33:00,,0824.1,5.00,0.00,22.1,20.6,00.0,31.0,23.9,14.7,-000.3,0017.29,0020.38,0016.81
2023-01-23 22:34:00,,0824.1,5.00,0.00,22.1,20.6,00.0,31.0,23.9,14.7,-000.1,0017.26,0020.30,0016.78
2023-01-23 22:35:00,,0824.1,4.98,0.00,22.1,20.6,00.0,31.0,23.9,14.6,0000.2,0017.24,0020.18,0016.76
2023-01-23 22:36:00,,0824.1,5.01,0.00,22.1,20.6,00.0,30.9,23.9,14.6,0000.4,0017.26,0020.26,0016.75
2023-01-23 22:37:00,,0824.1,4.98,0.00,22.1,20.6,00.0,30.9,23.9,14.7,0000.7,0017.24,0020.22,0016.74
2023-01-23 22:38:00,,0824.1,5.01,0.00,22.1,20.6,00.0,30.9,23.9,14.7,0000.6,0017.21,0020.29,0016.71
2023-01-23 22:39:00,,0824.1,5.00,0.00,22.1,20.6,00.0,30.9,23.8,14.8,0001.1,0017.21,0020.77,0016.70
2023-01-23 22:40:00,,0824.1,5.00,0.00,22.1,20.6,00.0,30.9,23.9,14.8,0000.9,0017.18,0021.02,0016.67
2023-01-23 22:41:00,,0824.1,5.01,0.00,22.1,20.6,00.0,30.9,23.8,14.8,0000.9,0017.22,0021.33,0016.72
2023-01-23 22:42:00,,0824.1,5.00,0.00,22.1,20.6,00.0,30.9,23.9,14.8,0000.9,0017.29,0021.62,0016.78
2023-01-23 22:43:00,,0824.1,5.00,0.00,22.1,20.6,00.0,30.9,23.9,14.9,0000.3,0017.32,0021.70,0016.83
2023-01-23 22:44:00,,0824.1,4.99,0.00,22.1,20.6,00.0,30.9,23.9,14.9,-000.3,0017.35,0022.39,0016.89
2023-01-23 22:45:00,,0824.1,5.00,0.00,22.1,20.7,00.0,30.9,23.9,14.9,-000.3,0017.41,0022.63,0016.96
2023-01-23 22:46:00,,0824.1,5.00,0.00,22.1,20.7,00.0,30.9,23.9,14.9,-000.4,0017.48,0022.73,0017.04
2023-01-23 22:47:00,,0824.1,5.00,0.00,22.1,20.7,00.0,30.9,23.9,14.9,-000.2,0017.55,0022.82,0017.10
2023-01-23 22:48:00,,0824.1,5.00,0.00,22.1,20.7,00.0,30.9,23.9,14.9,-000.2,0017.65,0022.96,0017.18
2023-01-23 22:49:00,,0824.1,4.99,0.00,22.1,20.7,00.0,30.9,23.9,14.9,0000.1,0017.78,0022.99,0017.28
2023-01-23 22:50:00,,0824.1,5.00,0.00,22.1,20.8,00.0,30.9,23.9,14.9,-000.2,0017.87,0022.51,0017.37
2023-01-23 22:51:00,,0824.1,4.99,0.00,22.1,20.8,00.0,30.9,23.9,14.8,-000.2,0017.91,0022.05,0017.45
2023-01-23 22:52:00,,0824.1,5.00,0.00,22.1,20.8,00.0,30.9,23.9,14.9,-000.2,0017.96,0021.61,0017.48
2023-01-23 22:53:00,,0824.1,4.99,0.00,22.1,20.8,00.0,30.9,23.9,14.9,0000.1,0017.99,0021.54,0017.49
2023-01-23 22:54:00,,0824.1,5.00,0.00,22.1,20.8,00.0,30.9,23.9,15.0,0000.5,0017.94,0021.52,0017.42
2023-01-23 22:55:00,,0824.1,4.99,0.00,22.2,21.0,00.0,30.9,24.0,15.1,0000.8,0017.75,0020.55,0017.23
2023-01-23 22:56:00,,0824.1,4.99,0.00,22.2,21.7,00.0,30.9,24.2,15.1,0000.6,0017.41,0020.02,0016.91
2023-01-23 22:57:00,,0824.2,4.99,0.00,22.3,22.7,00.0,30.9,24.4,15.0,0000.4,0017.05,0019.68,0016.52
2023-01-23 22:58:00,,0824.1,4.99,0.00,22.4,22.6,00.0,31.0,24.5,14.9,0000.2,0016.65,0019.21,0016.16
2023-01-23 22:59:00,,0824.1,4.99,0.00,22.5,22.3,00.0,31.0,24.5,14.9,0000.3,0016.26,0018.86,0015.78
